This demonstration page uses our WeatherBlox Daily Observations layout. Learn more.

Left ArrowRight Arrow

39.08367, -84.50855

Hourly Observations for June 20, 2021

Temp ( °F °C ) Dew Point ( °F °C ) Humidity (%) Winds ( mph kmh ) Pressure ( in mb ) Visibility ( mi km ) Precip ( " mm )
12:53 am 00:53 Mostly Cloudy with Mist and Fog 72 22.2 70 21.1 94 94 N N/A 29.82 1010 4 6 N/A
1:53 am 01:53 Mostly Cloudy 73 22.8 69 20.6 87 87 S 7 11 29.80 1009 10 16 N/A
2:53 am 02:53 Partly Cloudy 72 22.2 68 20 87 87 N N/A 29.80 1009 10 16 N/A
3:53 am 03:53 Mostly Cloudy 72 22.2 68 20 87 87 N N/A 29.80 1009 10 16 N/A
4:53 am 04:53 Cloudy 71 21.7 68 20 90 90 N N/A 29.80 1009 10 16 N/A
5:53 am 05:53 Mostly Clear 70 21.1 68 20 93 93 SW 3 6 29.82 1010 10 16 N/A
6:53 am 06:53 Sunny 71 21.7 68 20 90 90 N N/A 29.84 1010 10 16 N/A
7:53 am 07:53 Sunny 73 22.8 69 20.6 87 87 S 8 13 29.81 1010 10 16 N/A
8:53 am 08:53 Sunny 77 25 70 21.1 79 79 SSW 7 11 29.82 1010 10 16 N/A
9:53 am 09:53 Mostly Sunny 78 25.6 69 20.6 74 74 SW 13 20 29.84 1010 10 16 N/A
10:53 am 10:53 Sunny 81 27.2 70 21.1 69 69 SSW 8 13 29.81 1009 10 16 N/A
11:53 am 11:53 Mostly Sunny 83 28.3 71 21.7 67 67 SSW 10 17 29.80 1009 10 16 N/A
12:53 pm 12:53 Partly Cloudy 84 28.9 70 21.1 63 63 SSW 14 22 29.78 1009 10 16 N/A
1:53 pm 13:53 Mostly Cloudy 84 28.9 71 21.7 65 65 SSW 9 15 29.77 1008 10 16 N/A
2:53 pm 14:53 Mostly Cloudy 87 30.6 72 22.2 61 61 SW 10 17 29.75 1007 10 16 N/A
3:53 pm 15:53 Partly Cloudy 86 30 71 21.7 61 61 SSW 9 15 29.74 1007 10 16 N/A
4:53 pm 16:53 Partly Cloudy 86 30 72 22.2 63 63 SSW 9 15 29.72 1007 10 16 N/A
5:53 pm 17:53 Partly Cloudy 85 29.4 72 22.2 65 65 SSW 14 22 29.73 1007 10 16 N/A
6:53 pm 18:53 Sunny 85 29.4 70 21.1 61 61 SW 10 17 29.72 1006 10 16 N/A
7:53 pm 19:53 Sunny 83 28.3 71 21.7 67 67 S 9 15 29.70 1006 10 16 N/A
8:53 pm 20:53 Sunny 79 26.1 70 21.1 74 74 S 6 9 29.70 1006 10 16 N/A
9:53 pm 21:53 Clear 78 25.6 69 20.6 74 74 SSW 9 15 29.70 1006 10 16 N/A
10:53 pm 22:53 Clear 77 25 69 20.6 77 77 SSW 8 13 29.72 1006 10 16 N/A
11:53 pm 23:53 Clear 75 23.9 69 20.6 82 82 S 8 13 29.71 1006 10 16 N/A

Powered by AerisWeather